12.4,9.1,1010.7,202004270030
12.6,9.1,1010.8,202004270100
11.8,23.0,1010.9,202004270130
10.6,33.2,1010.9,202004270200
10.8,34.9,1011.0,202004270230
10.1,51.0,1010.9,202004270300
10.1,52.2,1010.9,202004270330
10.6,48.2,1010.8,202004270400
10.7,40.0,1011.0,202004270430
9.7,74.1,1011.0,202004270500
10.0,74.4,1011.5,202004270530
10.3,98.8,1011.6,202004270600
10.4,99.5,1011.7,202004270630
11.3,99.9,1011.6,202004270700
12.8,91.8,1011.5,202004270730
12.7,81.3,1011.7,202004270800
14.1,47.5,1011.8,202004270830
14.3,48.7,1011.8,202004270900
16.1,47.0,1011.5,202004270930
15.9,44.4,1011.3,202004271000
11.6,70.5,1011.4,202004271030
11.8,67.8,1011.3,202004271100
13.9,60.2,1010.9,202004271130
14.6,52.2,1011.0,202004271200
14.3,40.2,1010.7,202004271230
15.0,30.2,1010.4,202004271300
15.8,29.2,1010.2,202004271330
16.0,28.7,1010.1,202004271400
17.1,22.1,1009.8,202004271430
16.9,25.0,1009.7,202004271500
16.8,25.7,1009.5,202004271530
16.5,23.7,1009.3,202004271600
16.9,24.7,1009.1,202004271630
16.8,22.1,1008.9,202004271700
16.8,21.1,1008.9,202004271730
16.4,22.6,1008.7,202004271800
16.2,21.8,1008.8,202004271830
15.9,22.5,1009.1,202004271900
15.9,23.1,1009.2,202004271930
15.7,24.7,1009.3,202004272000
15.4,23.8,1009.1,202004272030
14.7,25.2,1009.2,202004272100
14.6,24.5,1009.0,202004272130
14.7,23.6,1008.9,202004272200
14.2,25.2,1008.9,202004272230
14.0,26.3,1008.7,202004272300
13.7,26.5,1008.5,202004272330
13.5,27.1,1008.4,202004280000
12.7,31.7,1008.2,202004280030
12.2,35.7,1008.2,202004280100
12.2,37.0,1008.1,202004280130
11.8,39.0,1008.1,202004280200
11.6,37.7,1008.1,202004280230
10.9,41.0,1008.0,202004280300
11.2,35.0,1007.8,202004280330
11.2,32.4,1007.8,202004280400
11.5,30.5,1007.8,202004280430
14.8,26.2,1007.8,202004280500
13.1,31.6,1007.8,202004280530
15.1,32.7,1007.8,202004280600
17.9,29.8,1007.9,202004280630
17.9,27.6,1008.0,202004280700
15.6,32.0,1008.0,202004280730
17.4,24.7,1008.0,202004280800
17.2,25.2,1008.2,202004280830
17.2,26.2,1008.2,202004280900
19.3,19.2,1008.1,202004280930
19.3,18.6,1008.1,202004281000
19.1,18.7,1007.9,202004281030
19.0,17.7,1007.8,202004281100
19.2,17.2,1007.7,202004281130
19.2,15.8,1007.5,202004281200
19.9,18.0,1007.2,202004281230
19.3,19.3,1007.1,202004281300
18.6,23.2,1006.9,202004281330
18.2,28.1,1006.7,202004281400
17.8,29.2,1006.7,202004281430
17.7,29.7,1006.7,202004281500
17.4,34.4,1006.9,202004281530
17.1,40.2,1006.9,202004281600
16.8,48.2,1006.8,202004281630
15.6,49.0,1006.9,202004281700
13.3,99.9,1007.2,202004281730
12.9,99.9,1006.9,202004281800
12.9,99.9,1007.6,202004281830
14.1,99.9,1007.8,202004281900
14.0,99.9,1008.0,202004281930
13.8,99.9,1007.9,202004282000
13.8,99.9,1008.0,202004282030
13.6,99.9,1008.0,202004282100
13.5,99.9,1007.9,202004282130
13.4,99.9,1007.7,202004282200
13.2,99.9,1007.6,202004282230
13.1,99.9,1007.7,202004282300
12.9,99.9,1007.8,202004282330
12.8,99.9,1007.9,202004290000
